This is the latest recevied weather packets stored in our database for station/object AE5EW. If no packets are shown the sender has not sent any weather packets the latest 10 day(s).
| Time | Temp. | Humidity | Pressure | Rain* | Wind** | Luminosity | Snow |
|---|---|---|---|---|---|---|---|
| 1787440876 | 32.78° C | 64% | 1015 hPa | 0 mm | - | - | - |
| 1787440575 | 32.78° C | 61% | 1015.2 hPa | 0 mm | - | - | - |
| 1787440272 | 32.78° C | 58% | 1015.1 hPa | 0 mm | - | - | - |
| 1787439968 | 32.78° C | 58% | 1014.9 hPa | 0 mm | - | - | - |
| 1787439663 | 33.33° C | 56% | 1014.9 hPa | 0 mm | - | - | - |
| 1787439359 | 33.33° C | 55% | 1015 hPa | 0 mm | - | - | - |
| 1787439055 | 33.33° C | 58% | 1014.9 hPa | 0 mm | - | - | - |
| 1787438750 | 33.33° C | 54% | 1014.8 hPa | 0 mm | - | - | - |
| 1787438450 | 33.89° C | 54% | 1014.8 hPa | 0 mm | - | - | - |
| 1787438150 | 33.89° C | 54% | 1014.6 hPa | 0 mm | - | - | - |
| 1787437845 | 33.89° C | 55% | 1014.9 hPa | 0 mm | - | - | - |
| 1787437542 | 33.89° C | 53% | 1014.8 hPa | 0 mm | - | - | - |
| 1787437238 | 34.44° C | 51% | 1014.9 hPa | 0 mm | - | - | - |
| 1787436934 | 35° C | 52% | 1015 hPa | 0 mm | - | - | - |
| 1787436631 | 34.44° C | 51% | 1015.2 hPa | 0 mm | - | - | - |
| 1787436330 | 34.44° C | 52% | 1015 hPa | 0 mm | - | - | - |
| 1787436026 | 34.44° C | 51% | 1015.1 hPa | 0 mm | - | - | - |
| 1787435721 | 34.44° C | 50% | 1015.1 hPa | 0 mm | - | - | - |
| 1787435417 | 34.44° C | 51% | 1015.1 hPa | 0 mm | - | - | - |
| 1787435114 | 34.44° C | 56% | 1015.2 hPa | 0 mm | - | - | - |
| 1787434809 | 34.44° C | 53% | 1015.2 hPa | 0 mm | - | - | - |
| 1787434505 | 35° C | 50% | 1015.1 hPa | 0 mm | - | - | - |
| 1787434201 | 34.44° C | 51% | 1014.9 hPa | 0 mm | - | - | - |
| 1787433897 | 35° C | 54% | 1015 hPa | 0 mm | - | - | - |
| 1787433596 | 35° C | 53% | 1015 hPa | 0 mm | - | - | - |
* Rain latest hour (hover to see other rain measurements)
** Current wind speed in m/s (hover to see current wind gust speed)